Clermont County, Batavia, OH

5:39 AM EST on December 09, 2019 (GMT -0500)
Clermont County, Batavia

Weather History for KI69 - October, 2019

Change the Weather History Date:

Thursday, October 17, 2019

  Actual Average (KLUK) Record (KLUK)
Temperature  
Mean Temperature 50 °F -  
Max Temperature 58 °F 66 °F 84 °F (1963)
Min Temperature 41 °F 44 °F 29 °F (1970)
Degree Days  
Heating Degree Days 16    
Moisture  
Dew Point 37 °F    
Average Humidity 65    
Maximum Humidity 85    
Minimum Humidity 42    
Precipitation  
Precipitation 0.00 in - - ()
Sea Level Pressure  
Sea Level Pressure 29.99 in    
Wind  
Wind Speed 9 mph (WNW)    
Max Wind Speed 16 mph    
Max Gust Speed 22 mph    
Visibility 10 miles    
Events      
Averages and records for this station are not official NWS values.
T = Trace of Precipitation, MM = Missing Value Source: NWS Daily Summary

Daily Weather History Graph

Daily Weather History Graph

Search for Another Location

Airport or City:

Astronomy

Oct. 17, 2019 Rise Set
Actual Time 7:48 AM EDT 6:55 PM EDT
Civil Twilight 7:21 AM EDT 7:22 PM EDT
Nautical Twilight 6:50 AM EDT 7:53 PM EDT
Astronomical Twilight 6:19 AM EDT 8:24 PM EDT
Moon 9:28 PM EDT (10/17) 11:17 AM EDT (10/17)
Length of Visible Light 12h 01m
Length of Day
11h 07m
Waning Gibbous, 87% of the Moon is Illuminated
Oct 17
Waning Gibbous
Oct 21
Last Quarter
Oct 27
New
Nov 4
First Quarter
Nov 12
Full

Hourly Weather History & Observations

Time (EDT) Temp. Windchill Dew Point Humidity Pressure Visibility Wind Dir Wind Speed Gust Speed Precip Events Conditions
12:16 AM 47.8 °F - 37.4 °F 67% 29.98 in 10.0 mi West 12.7 mph - N/A   Overcast
12:35 AM 47.7 °F - 37.4 °F 68% 29.98 in 10.0 mi WNW 10.4 mph 18.4 mph N/A   Overcast
12:55 AM 46.9 °F - 37.4 °F 69% 29.98 in 10.0 mi West 11.5 mph 18.4 mph N/A   Overcast
1:19 AM 46.6 °F - 37.4 °F 70% 29.97 in 10.0 mi West 8.1 mph - N/A   Overcast
1:38 AM 46.2 °F 41.2 °F 37.4 °F 71% 29.98 in 10.0 mi West 10.4 mph - N/A   Overcast
1:56 AM 45.7 °F 41.0 °F 37.4 °F 73% 29.98 in 10.0 mi West 9.2 mph - N/A   Overcast
2:15 AM 45.1 °F 40.8 °F 37.4 °F 74% 29.98 in 10.0 mi West 8.1 mph - N/A   Mostly Cloudy
2:35 AM 44.6 °F 39.7 °F 37.4 °F 76% 29.98 in 10.0 mi West 9.2 mph - N/A   Scattered Clouds
2:59 AM 44.4 °F 39.5 °F 37.4 °F 76% 29.98 in 10.0 mi West 9.2 mph - N/A   Scattered Clouds
3:17 AM 43.9 °F 38.8 °F 37.4 °F 78% 29.98 in 10.0 mi West 9.2 mph - N/A   Scattered Clouds
3:36 AM 43.7 °F 39.1 °F 37.2 °F 78% 29.97 in 10.0 mi West 8.1 mph - N/A   Clear
3:55 AM 43.3 °F 38.1 °F 37.0 °F 78% 29.97 in 10.0 mi West 9.2 mph - N/A   Clear
4:15 AM 43.5 °F 39.4 °F 36.9 °F 77% 29.96 in 10.0 mi West 6.9 mph - N/A   Clear
4:39 AM 43.5 °F 38.3 °F 36.7 °F 77% 29.96 in 10.0 mi West 9.2 mph - N/A   Clear
4:57 AM 43.3 °F 38.1 °F 36.5 °F 77% 29.97 in 10.0 mi WNW 9.2 mph - N/A   Clear
5:15 AM 43.2 °F 37.9 °F 36.5 °F 77% 29.98 in 10.0 mi WNW 9.2 mph - N/A   Clear
5:35 AM 43.0 °F 38.2 °F 36.5 °F 78% 29.97 in 10.0 mi WNW 8.1 mph - N/A   Clear
5:55 AM 42.8 °F 37.0 °F 36.3 °F 78% 29.98 in 10.0 mi WNW 10.4 mph - N/A   Clear
6:19 AM 42.3 °F 37.3 °F 36.1 °F 79% 29.98 in 10.0 mi WNW 8.1 mph - N/A   Clear
6:37 AM 42.1 °F 37.1 °F 36.1 °F 79% 29.98 in 10.0 mi NW 8.1 mph - N/A   Clear
6:55 AM 41.9 °F 36.9 °F 36.1 °F 80% 29.99 in 10.0 mi WNW 8.1 mph - N/A   Clear
7:16 AM 41.5 °F 37.1 °F 36.0 °F 81% 29.98 in 10.0 mi WNW 6.9 mph - N/A   Clear
7:35 AM 41.4 °F 37.6 °F 36.0 °F 81% 29.99 in 10.0 mi WNW 5.8 mph - N/A   Clear
7:59 AM 41.9 °F 40.0 °F 36.5 °F 81% 29.99 in 10.0 mi West 3.5 mph - N/A   Clear
8:17 AM 42.4 °F 38.1 °F 36.7 °F 80% 29.99 in 10.0 mi West 6.9 mph - N/A   Clear
8:35 AM 42.4 °F 38.8 °F 36.7 °F 80% 30.00 in 10.0 mi WNW 5.8 mph - N/A   Clear
8:55 AM 42.3 °F 37.9 °F 36.9 °F 81% 30.01 in 10.0 mi West 6.9 mph - N/A   Clear
9:15 AM 43.9 °F 39.3 °F 37.4 °F 78% 30.01 in 10.0 mi WNW 8.1 mph - N/A   Clear
9:16 AM 44.1 °F 39.5 °F 37.2 °F 77% 30.01 in 10.0 mi West 8.1 mph - N/A   Clear
9:39 AM 44.8 °F 41.6 °F 37.4 °F 75% 30.01 in 10.0 mi WNW 5.8 mph - N/A   Clear
9:57 AM 46.4 °F 41.9 °F 38.1 °F 73% 30.02 in 10.0 mi West 9.2 mph - N/A   Clear
10:15 AM 47.1 °F - 37.9 °F 70% 30.02 in 10.0 mi WNW 11.5 mph - N/A   Clear
10:35 AM 48.9 °F - 38.8 °F 68% 30.02 in 10.0 mi West 11.5 mph - N/A   Clear
10:55 AM 50.0 °F - 39.2 °F 66% 30.02 in 10.0 mi WNW 9.2 mph - N/A   Clear
11:19 AM 50.4 °F - 37.8 °F 62% 30.03 in 10.0 mi West 8.1 mph - N/A   Clear
11:37 AM 51.6 °F - 37.4 °F 58% 30.02 in 10.0 mi West 12.7 mph - N/A   Scattered Clouds
11:55 AM 51.8 °F - 37.0 °F 57% 30.02 in 10.0 mi West 6.9 mph - N/A   Scattered Clouds
12:15 PM 53.4 °F - 37.9 °F 56% 30.02 in 10.0 mi West 11.5 mph - N/A   Overcast
12:35 PM 52.9 °F - 36.5 °F 54% 30.01 in 10.0 mi NW 6.9 mph - N/A   Overcast
12:59 PM 54.3 °F - 36.3 °F 51% 30.01 in 10.0 mi NW 12.7 mph 17.3 mph N/A   Mostly Cloudy
1:17 PM 54.1 °F - 36.0 °F 50% 30.01 in 10.0 mi NW 8.1 mph 18.4 mph N/A   Scattered Clouds
1:35 PM 54.7 °F - 36.3 °F 50% 30.01 in 10.0 mi WNW 13.8 mph 18.4 mph N/A   Scattered Clouds
1:55 PM 56.3 °F - 36.1 °F 47% 30.00 in 10.0 mi NW 11.5 mph 16.1 mph N/A   Scattered Clouds
2:16 PM 56.1 °F - 35.4 °F 46% 29.99 in 10.0 mi West 16.1 mph 21.9 mph N/A   Clear
2:39 PM 56.8 °F - 35.8 °F 45% 29.99 in 10.0 mi NNW 9.2 mph 18.4 mph N/A   Clear
2:57 PM 55.9 °F - 35.2 °F 46% 29.99 in 10.0 mi West 6.9 mph - N/A   Clear
3:15 PM 57.4 °F - 35.2 °F 43% 29.98 in 10.0 mi West 9.2 mph 17.3 mph N/A   Scattered Clouds
3:35 PM 57.9 °F - 35.6 °F 43% 29.97 in 10.0 mi West 10.4 mph - N/A   Clear
3:55 PM 58.6 °F - 36.3 °F 43% 29.97 in 10.0 mi NW 10.4 mph 16.1 mph N/A   Scattered Clouds
4:19 PM 57.9 °F - 35.8 °F 44% 29.97 in 10.0 mi West 10.4 mph - N/A   Scattered Clouds
4:37 PM 58.6 °F - 35.8 °F 42% 29.97 in 10.0 mi West 11.5 mph 17.3 mph N/A   Mostly Cloudy
4:55 PM 58.3 °F - 35.8 °F 43% 29.97 in 10.0 mi NNW 8.1 mph - N/A   Scattered Clouds
5:15 PM 57.9 °F - 36.0 °F 44% 29.97 in 10.0 mi NNW 6.9 mph - N/A   Scattered Clouds
5:35 PM 57.7 °F - 36.0 °F 44% 29.97 in 10.0 mi NW 6.9 mph - N/A   Mostly Cloudy
5:58 PM 56.5 °F - 35.6 °F 46% 29.97 in 10.0 mi NNW 6.9 mph - N/A   Scattered Clouds
6:17 PM 55.9 °F - 35.4 °F 46% 29.97 in 10.0 mi NNW 4.6 mph - N/A   Scattered Clouds
6:35 PM 55.2 °F - 35.4 °F 47% 29.98 in 10.0 mi NW 5.8 mph - N/A   Scattered Clouds
6:55 PM 54.0 °F - 35.6 °F 50% 29.98 in 10.0 mi WNW 3.5 mph - N/A   Clear
7:15 PM 53.6 °F - 35.6 °F 51% 29.98 in 10.0 mi WNW 3.5 mph - N/A   Clear
7:38 PM 52.2 °F - 35.6 °F 53% 29.98 in 10.0 mi WNW 3.5 mph - N/A   Clear
7:56 PM 52.0 °F - 35.6 °F 54% 29.99 in 10.0 mi WNW 3.5 mph - N/A   Clear
8:15 PM 51.8 °F - 35.6 °F 54% 30.00 in 10.0 mi WNW 3.5 mph - N/A   Clear
8:35 PM 49.1 °F - 37.9 °F 65% 30.01 in 10.0 mi West 3.5 mph - N/A   Clear
8:55 PM 48.6 °F - 37.9 °F 67% 30.01 in 10.0 mi West 3.5 mph - N/A   Clear
9:18 PM 48.6 °F - 38.1 °F 67% 30.01 in 10.0 mi West 3.5 mph - N/A   Mostly Cloudy
9:36 PM 47.7 °F - 38.3 °F 70% 30.02 in 10.0 mi West 4.6 mph - N/A   Scattered Clouds
9:55 PM 48.2 °F - 37.2 °F 66% 30.02 in 10.0 mi WNW 5.8 mph - N/A   Clear
10:15 PM 49.1 °F - 36.7 °F 62% 30.03 in 10.0 mi WNW 4.6 mph - N/A   Clear
10:35 PM 46.4 °F - 36.7 °F 69% 30.03 in 10.0 mi Calm Calm - N/A   Clear
10:58 PM 46.9 °F - 37.4 °F 69% 30.04 in 10.0 mi Calm Calm - N/A   Clear
11:16 PM 45.1 °F - 37.4 °F 74% 30.04 in 10.0 mi Calm Calm - N/A   Clear
11:36 PM 42.8 °F - 37.9 °F 83% 30.04 in 10.0 mi Calm Calm - N/A   Clear
11:55 PM 42.4 °F - 38.1 °F 85% 30.04 in 10.0 mi Calm Calm - N/A   Clear